CZ-4C DEB

Satellite information

Favourite Embed

Satellite Type and Status

DEBRISIN ORBIT

Key statistics

Satellite CZ-4C DEB at a glance.

Uptime

5519

Days in orbit

Revolutions

≈ 13.8

Per day

Orbit

SSO

Sun Synchronous Orbit

Inclination

98.8

Latest

Satellite identification and parameters

Extended collection of information and parameters for CZ-4C DEB.

Object identification

Identified? True

Debris? True

Object name: CZ-4C DEB

International designator: 2010-059F

Object number (NORAD): 38296

Object ID (CCSDS): 38296

Country: PEOPLES REPUBLIC OF CHINA (PRC)

Current information (Y/N): Y

RCS size: SMALL

Orbital parameters

Period: 104.529 minutes

Inclination: 98.7951 deg

SMA: 7350.497 km

Apoapsis: 1148.094 km

Periapsis: 796.63 km

RAAN: 269.9444 deg

Eccentricy: 0.0239075

Argument of periapsis: 210.6808 deg

Mean anomaly: 148.0182 deg

Mean motion: 13.77614614 rev/day

Mean motion (dot): 0.00000506 rev/day2

B* drag term: 0.00044307 1/REarth

Two-line elements (TLE)

Creation date: Dec. 10, 2025, 10:36 p.m.

Reference frame: TEME

Reference center: EARTH

Epoch: Dec. 10, 2025, 12:42 p.m. UTC

TLE line 0: 0 CZ-4C DEB

TLE line 1: 1 38296U 10059F 25344.52944422 .00000506 00000-0 44307-3 0 9995

TLE line 2: 2 38296 98.7951 269.9444 0239075 210.6808 148.0182 13.77614614753052

Live tracking on map

Real-time ground track for satellite CZ-4C DEB.

In-orbit conjunctions

A list of the most updated potential collisions computed for object CZ-4C DEB.

Target Orbit TCA Probability of collision Miss distance Type
THOR ABLESTAR DEB LEO 2025-12-01 20:26:16 0.0001305049 107.0 (m) DEBRIS
COSMOS 1275 DEB LEO 2025-07-26 02:03:33 0.000103219 186.0 (m) DEBRIS
NIMBUS 2 DEB SSO 2024-09-26 12:39:50 0.0002541735 827.0 (m) DEBRIS

Associated space launch

CZ-4C DEB was lifted into orbit during the mission ‘Long March 4C | Feng Yun-3B’, on board a Long March 4C space rocket.

The launch took place on Nov. 4, 2010, 6:37 p.m. from Launch Complex 7.

For more information about the launch, click the button.

Launch to space Long March 4C | Feng Yun-3B
Long March 4C | Feng Yun-3B

Agency: N/A

Status: Launch Successful

Launch date: Nov. 4, 2010, 6:37 p.m. UTC

Rocket: Long March 4C

Launch pad: Launch Complex 7

Location: Taiyuan Satellite Launch Center, People's Republic of China

...

Latest news about this satellite

There are no fresh news available about this satellite. Check back as we update our databases every day.


Newsletter sign-up

Weekly statistics, charts and insights to help you stay on top of the space industry.